Regional Weather Roundup
Issued by NWS Green Bay, WI

Home | Current Version | Previous Version | Graphics & Text | Print | Product List | Glossary Off
Versions: 1 2 3 4 5 6 7 8 9 10 11 12 13 14 15 16 17 18 19 20 21 22 23 24 25 26 27 28 29 30 31 32 33 34 35 36 37 38 39 40 41 42 43 44 45 46 47 48 49 50

381
ASUS43 KGRB 222200
RWRGRB

NORTH-CENTRAL AND NORTHEAST WISCONSIN REGIONAL WEATHER ROUNDUP
NATIONAL WEATHER SERVICE GREEN BAY WI
400 PM CST MON JAN 22 2018

WIZ005-009-010>012-018-019-222300-
NORTH CENTRAL WISCONSIN

CITY           SKY/WX    TMP DP  RH WIND       PRES   REMARKS
IRONWOOD       LGT SNOW  25  23  92 NE14G22   29.77F VSB 1
MANITOWISH WTR NOT AVBL
ARBOR VITAE    NOT AVBL
EAGLE RIVER    SNOW      28  27  96 NE24G31   29.63F VSB 1/2
LAND O LAKES   NOT AVBL
RHINELANDER    SNOW      29  28  96 NE13G26   29.58F VSB 1/2
PHILLIPS       SNOW      27  27  99 NE20G26   29.61F VSB 1/2
ANTIGO         NOT AVBL
TOMAHAWK       NOT AVBL
MERRILL        LGT SNOW  32  31  96 NE15G21   29.56S VSB 1
$$

WIZ013-073-222300-
NORTHEAST WISCONSIN

CITY           SKY/WX    TMP DP  RH WIND       PRES   REMARKS
IRON MOUNTAIN  SNOW      29  26  89 N12       29.65R VSB 1/2
MARINETTE      LGT SNOW  30  28  92 NE28G33   29.60F VSB 3/4
$$

WIZ017-030-035>037-045-222300-
CENTRAL WISCONSIN

CITY           SKY/WX    TMP DP  RH WIND       PRES   REMARKS
MEDFORD        NOT AVBL
WAUSAU         SNOW      32  31  96 NE5       29.59R VSB 1/4
MOSINEE        NOT AVBL
MARSHFIELD     HVY SNOW  32  32 100 NE6       29.57S VSB 1/4
WISC RAPIDS    NOT AVBL
STEVENS POINT  NOT AVBL
WAUPACA        NOT AVBL
SHAWANO        LGT RAIN  33  31  90 NE13G25   29.59R
CLINTONVILLE   LGT SNOW  32  30  93 E12       29.60R
WAUTOMA        MIX PCPN  32  30  92 NE13      29.54R
$$

WIZ038-039-048-051-222300-
FOX VALLEY

CITY           SKY/WX    TMP DP  RH WIND       PRES   REMARKS
NWS GREEN BAY  FRZ RAIN  33  31  92 NE20G26   29.56R
APPLETON       LGT RAIN  32  32 100 N17G24    29.49S
OSHKOSH        CLOUDY    34  32  92 N18G24    29.52R
FOND DU LAC    MIX PCPN  36  33  89 N14       29.50R
$$

WIZ022-050-052-222300-
EAST CENTRAL WISCONSIN

CITY           SKY/WX    TMP DP  RH WIND       PRES   REMARKS
EPHRAIM        NOT AVBL
WASHINGTON ISL NOT AVBL
STURGEON BAY   MIX PCPN  32  31  96 NE15G22   29.56F FOG
MANITOWOC      RAIN      35  35 100 NE13G18   29.51S
SHEBOYGAN      LGT RAIN  37  37 100 N10       29.47S FOG
$$

LMZ563-521-522-541>543-222300-
LAKESHORE

STATION/POSITION TIME  TEMP    WIND        PRES    VSBY  WAVE
                       AIR SEA DIR/SP/G                  HT/PER
                 (UTC) (F)     (DEG/KT/KT) (MB)    (MI)  (FT/S)
SHEBOYGAN LKSHOR 2100   36      30/ 15/ 17  998.1F
KEWAUNEE LKSHORE 2130   35      40/ 17/ 23  999.5F
NORTHPORT PIER   2140   31      50/  9/ 17 1003.4F
MENOMINEE LKSHOR 2130   30      20/ 32/ 38 1002.2F
$$




USA.gov is the U.S. government's official web portal to all federal, state and local government web resources and services.